Dewpoint
75 76 75 74 75 76 75 75 75 76 75 74 75 74 74 74 74 74 75 76 76 76 76 76 76 76 76 76 76 76 76 76 76 76 75 75 75 75 75 75 75 74 74 74 74 74 74 74 74 74 74 74 74 74 74 75 75 75 75 75 74 74 74 74 74 75 75 76 76 76 76 76 75 75 75 75 75 75 75 74 73 73 74 74 75
74 75 73 74 75 75 75 76 76 76 76 75 74 74 73 74 74 75 76 76 76 76 76 76 76 76 76 76 76 76 75 75 75 76 76 75 75 75 75 75 74 74 74 75 74 75 75 75 74 75 75 74 75 75 74 75 75 74 75 75 74 74 74 74 74 74 75 75 76 75 75 75 75 75 75 75 75 75 74 73 73 72 74 74 74
73 74 74 75 75 75 75 75 76 76 76 75 75 74 73 74 74 75 75 76 76 76 76 76 76 76 76 76 75 75 75 75 75 75 75 76 75 75 74 74 74 74 74 74 74 76 76 75 74 75 75 76 75 74 75 74 74 75 74 74 75 76 75 75 75 75 75 76 76 75 75 75 74 74 74 74 74 74 74 73 73 73 73 74 74
71 73 74 75 75 76 76 76 76 76 76 75 76 76 75 76 76 76 76 76 76 76 77 77 77 77 76 76 76 76 76 75 75 75 75 75 75 75 74 74 74 74 73 73 75 75 75 75 75 75 75 75 75 75 75 75 74 73 73 75 75 75 76 75 75 75 75 75 75 74 74 75 74 73 73 73 73 73 74 74 75 75 75 74 75
71 72 73 75 75 76 76 76 76 77 77 77 77 76 76 76 76 76 76 76 77 77 77 77 76 76 76 75 75 75 75 75 75 75 75 75 75 75 75 75 75 74 74 74 75 75 75 75 75 75 75 75 75 75 75 74 74 74 74 74 75 75 75 74 75 75 75 75 74 73 73 74 74 73 73 73 73 73 73 74 75 74 75 75 74
70 71 72 72 73 76 77 76 76 76 76 76 76 76 76 76 76 76 77 77 76 76 76 76 75 75 74 74 75 75 74 74 74 74 75 75 75 75 75 75 74 75 74 75 75 75 75 75 75 75 75 75 75 75 74 73 74 73 73 74 74 75 75 75 75 75 74 74 74 75 74 73 73 72 72 73 73 73 72 73 73 74 75 74 74
70 71 71 71 73 75 76 76 76 76 76 76 76 76 76 76 76 77 76 76 76 76 75 75 75 73 74 74 75 74 74 74 74 74 75 75 75 75 75 75 75 75 75 75 75 75 75 75 75 75 75 75 74 74 74 74 74 74 74 74 74 75 75 75 75 75 74 73 72 75 74 73 73 73 73 73 73 72 73 73 72 74 74 73 73
69 70 69 69 72 76 77 77 76 76 76 76 76 76 76 76 76 76 75 75 76 75 74 74 75 74 74 75 75 74 74 74 74 75 74 74 74 74 75 75 75 75 75 75 74 75 75 75 75 75 75 74 75 75 75 75 74 74 74 74 74 75 75 75 75 74 73 74 73 74 74 74 74 74 73 74 73 72 71 70 72 73 74 74 74
69 69 69 70 73 77 77 76 76 76 76 76 76 76 76 76 75 75 75 75 75 75 74 74 75 75 75 74 74 74 74 74 74 74 74 74 74 75 75 75 75 75 75 75 75 75 75 76 75 74 74 74 75 75 75 75 74 74 74 74 74 75 74 74 74 73 73 73 73 73 73 74 72 73 73 73 73 72 71 72 72 73 73 73 73
69 70 70 71 73 77 76 76 76 76 76 76 76 76 75 75 75 75 75 75 75 74 75 75 75 75 75 74 74 74 74 74 74 74 74 74 74 74 74 74 75 75 75 75 75 75 75 75 75 74 74 74 75 75 75 75 75 74 74 75 75 75 74 74 73 73 72 74 73 74 73 73 73 72 73 73 72 72 72 71 72 72 73 74 74
70 70 70 71 73 77 77 77 76 76 76 76 76 76 76 75 75 75 75 74 75 75 74 74 74 74 74 74 74 75 75 75 75 74 74 75 74 75 75 74 75 75 75 75 75 75 75 74 75 75 75 74 74 75 75 74 74 74 73 75 75 74 73 73 73 72 71 74 74 73 73 74 73 73 72 73 72 72 73 72 73 73 74 74 74
68 70 70 72 78 77 76 76 76 76 76 76 76 76 76 75 75 75 75 75 75 75 75 75 75 75 74 75 75 75 75 74 75 75 75 75 75 75 75 74 74 74 74 74 74 75 75 75 75 75 74 75 74 74 75 74 73 73 74 75 74 74 74 72 74 73 73 73 73 73 73 73 73 72 73 72 72 72 72 72 73 74 74 74 74
67 67 69 72 74 76 76 75 76 76 75 76 75 75 75 75 76 75 76 76 75 75 75 75 75 76 75 75 75 75 74 75 75 75 75 75 75 75 75 75 75 74 74 74 74 76 75 75 75 75 74 74 74 74 74 74 74 73 73 75 74 74 74 73 73 73 73 73 73 73 73 73 73 72 72 72 72 72 72 72 73 73 74 74 74
66 67 68 70 73 77 76 76 76 76 76 75 76 75 75 75 75 75 76 76 76 76 76 76 76 75 75 75 75 75 75 75 74 75 75 75 75 75 75 75 74 74 74 74 74 74 75 75 75 74 74 74 74 74 74 74 74 73 73 74 74 74 73 73 73 74 73 72 73 72 73 74 73 72 72 72 72 72 72 73 73 73 74 74 74
65 66 68 71 73 75 76 76 76 76 76 76 76 76 76 76 75 75 75 75 76 76 76 75 76 75 75 75 75 75 75 75 75 75 74 74 74 75 75 75 74 74 74 74 74 74 75 75 75 74 74 74 74 74 74 74 74 74 74 74 74 74 72 74 73 73 72 74 73 73 73 73 72 72 72 72 72 72 73 74 74 73 73 74 73
65 66 68 71 72 75 75 76 76 76 76 76 75 75 75 75 75 75 75 76 75 76 75 75 75 75 75 75 75 75 75 75 75 75 74 74 74 74 75 74 74 74 74 75 74 74 75 75 74 74 73 73 73 73 74 74 74 74 74 74 74 74 73 72 73 72 72 72 73 73 73 72 73 72 72 73 73 73 73 73 73 73 73 73 73
64 67 68 70 72 72 72 74 75 76 76 76 75 75 75 75 75 75 75 75 75 75 75 75 75 75 75 75 75 75 75 76 75 75 74 74 74 74 74 75 75 75 75 75 75 75 75 75 74 73 73 73 73 74 74 74 74 74 74 74 74 73 73 72 72 72 72 74 72 74 74 74 74 73 73 73 73 74 74 73 73 73 73 73 73
65 67 68 70 70 70 70 72 76 76 76 76 75 75 75 75 75 75 75 75 75 76 76 76 75 75 75 75 75 75 76 76 76 75 75 75 75 75 75 74 75 75 75 75 75 75 75 74 74 73 73 73 74 74 74 74 74 74 74 74 73 73 73 72 72 73 74 73 74 74 73 73 74 73 74 74 73 74 74 73 73 74 74 73 72
65 66 68 69 68 69 70 74 76 76 76 75 76 75 75 75 75 75 74 75 75 76 76 76 75 75 75 75 74 74 76 76 76 76 76 75 75 75 75 75 75 75 75 75 74 74 74 74 74 74 73 74 74 74 74 74 74 74 74 74 73 72 73 71 72 72 73 73 73 72 73 74 74 73 73 73 74 74 74 74 74 74 74 74 73
66 66 67 68 67 68 71 73 75 75 75 74 75 75 75 75 75 74 74 74 76 76 75 75 75 74 74 74 74 76 75 75 76 75 76 76 74 74 75 75 74 74 75 75 74 74 74 74 74 74 74 74 75 75 74 74 74 74 74 74 73 74 70 69 72 71 70 70 71 72 75 74 74 74 74 74 73 73 74 74 74 74 74 73 73
65 65 68 68 67 68 72 74 74 75 74 74 74 75 75 75 75 74 74 73 74 74 74 74 74 75 75 75 74 75 75 74 75 74 75 75 76 76 76 75 75 74 74 74 74 74 74 74 74 74 75 75 75 75 74 75 74 74 74 74 75 71 70 72 71 71 71 71 71 72 75 74 73 73 74 74 74 73 73 74 74 74 74 74 73
65 64 68 68 68 69 72 73 73 74 74 74 74 74 75 75 75 76 76 75 74 75 75 75 74 76 74 75 76 76 75 76 76 74 75 75 74 74 74 74 74 74 74 74 73 74 74 74 75 74 75 75 75 72 74 74 75 74 74 75 72 70 71 71 71 70 70 71 72 74 75 73 73 73 73 73 74 74 74 74 74 74 74 74 74
65 65 67 68 69 69 71 70 71 73 74 74 72 73 74 75 75 75 74 74 75 76 75 76 76 75 76 75 75 75 75 76 76 75 75 73 73 73 74 74 75 75 74 74 74 73 75 75 76 76 75 75 75 72 73 73 74 75 75 73 71 70 71 71 71 71 71 71 72 74 73 73 73 73 73 73 73 73 74 74 73 74 74 73 73
64 64 66 67 68 68 70 70 72 73 73 73 73 73 74 74 73 74 74 74 75 76 76 76 76 75 74 74 73 76 75 76 75 75 74 73 74 75 75 76 75 75 75 75 76 76 75 75 76 76 75 75 72 69 69 69 70 72 72 71 70 71 72 71 69 71 71 71 73 74 74 73 73 72 73 73 73 73 74 74 73 73 73 73 73
64 65 66 67 68 68 69 71 72 72 72 73 73 72 73 72 71 71 72 73 74 74 74 75 75 75 75 74 72 74 73 74 76 75 74 75 74 74 74 74 75 73 74 75 73 75 75 75 75 73 72 72 71 71 71 70 71 70 69 69 70 72 70 71 69 69 72 73 74 74 74 73 73 72 72 73 73 73 73 73 73 73 73 73 73
66 66 66 67 68 68 68 70 71 72 72 72 72 73 74 71 71 70 71 72 71 71 72 72 73 74 73 71 73 74 74 74 75 75 75 75 73 72 73 73 75 75 75 74 73 74 73 71 71 70 68 69 69 71 71 71 71 70 70 72 71 72 70 69 69 70 72 72 74 74 74 73 73 72 72 72 73 73 73 73 73 73 73 73 73
67 66 67 67 68 68 69 70 69 71 72 73 73 72 71 72 71 70 71 70 72 71 70 70 72 73 71 71 67 68 69 70 73 74 74 74 73 72 72 73 74 73 73 71 73 73 71 70 71 71 69 68 68 70 72 70 71 70 70 70 71 70 70 69 69 70 71 74 74 74 73 74 74 74 74 72 73 73 73 72 73 73 73 73 73
68 67 67 66 68 66 69 70 71 71 72 72 73 71 72 70 70 72 71 71 70 70 67 68 72 72 73 71 70 68 67 68 72 72 72 73 73 74 74 71 71 71 74 72 71 70 71 72 73 73 72 71 68 70 68 71 70 71 70 69 71 69 70 69 69 69 69 72 73 75 74 74 73 73 74 74 73 72 72 73 72 73 73 73 73
66 67 67 66 66 68 69 69 70 72 71 71 72 71 72 71 70 69 69 73 70 69 68 72 70 71 72 73 73 69 68 69 71 72 72 72 73 73 71 71 72 72 73 71 72 73 72 71 72 72 72 72 70 69 69 67 70 69 68 69 70 70 70 69 69 67 67 69 73 73 74 74 74 73 73 73 73 72 72 72 72 72 72 73 72
66 67 66 67 65 66 68 68 70 71 71 69 72 72 72 71 71 70 71 73 69 70 72 67 70 71 70 73 73 73 70 69 71 72 72 73 72 73 73 72 71 72 71 72 71 71 71 73 73 73 71 71 71 69 70 66 64 66 67 67 67 68 70 70 70 68 68 67 71 74 74 74 74 73 73 74 73 73 72 72 72 72 72 72 72
67 67 66 67 67 67 66 68 69 72 71 69 72 73 73 71 72 71 71 71 70 73 70 68 68 71 72 75 75 76 74 72 72 73 74 73 73 73 72 72 71 70 72 71 73 73 73 71 73 71 72 72 71 70 70 69 68 65 64 63 65 68 69 71 69 68 65 66 69 73 75 75 74 74 73 73 73 73 73 73 73 73 73 73 72
66 66 66 68 66 66 66 68 68 71 71 69 72 71 72 71 72 71 70 71 73 71 69 70 70 71 74 75 76 75 76 75 76 75 74 73 72 71 72 72 71 71 72 71 72 73 73 74 76 76 74 73 72 71 71 67 66 63 65 63 64 67 68 69 66 65 67 67 67 71 75 75 74 74 74 74 73 73 73 73 73 73 72 73 73
65 65 66 68 66 65 66 68 68 71 71 68 69 69 70 69 71 71 71 71 72 71 70 69 71 74 75 75 77 77 77 76 76 76 74 72 72 72 71 72 73 73 73 75 75 75 74 73 75 75 73 73 71 72 71 67 65 64 64 64 63 65 68 68 69 67 65 67 66 66 70 74 75 74 74 74 73 73 73 73 73 73 72 72 72
65 65 66 66 66 65 66 67 68 69 71 68 70 68 69 69 70 69 71 71 69 70 70 71 71 72 74 75 75 76 76 76 77 77 75 72 73 72 72 71 73 75 75 75 74 72 73 75 74 73 72 71 70 72 69 69 65 65 64 64 65 67 68 67 67 67 66 66 66 67 66 70 72 75 75 75 74 73 74 73 73 73 73 73 73
66 65 66 67 67 66 66 65 69 70 71 70 69 70 70 69 70 70 70 71 71 71 68 70 70 70 72 72 75 76 77 78 78 77 75 73 71 72 71 71 74 76 73 74 73 72 73 72 71 73 73 72 68 72 71 68 65 65 66 66 64 65 67 67 68 67 67 69 68 66 67 66 71 72 74 74 74 75 74 74 74 73 73 73 73
66 67 67 67 67 68 69 66 68 70 71 71 71 71 70 71 70 71 72 73 71 70 69 68 69 68 70 73 75 77 78 79 79 78 76 74 71 71 71 75 76 75 74 75 74 73 73 73 72 72 73 70 71 69 71 70 66 63 64 65 66 66 66 68 67 66 65 69 70 69 68 69 69 71 71 72 75 76 75 74 74 74 74 73 73
66 67 67 69 69 68 70 65 66 68 71 71 73 73 72 72 73 72 70 72 70 69 69 69 69 69 68 69 75 76 77 78 79 78 77 75 72 72 71 75 75 74 75 75 72 72 73 71 74 73 73 73 70 67 70 71 67 64 63 62 62 66 66 69 68 67 65 66 66 63 66 67 70 66 69 72 73 74 75 75 75 75 74 74 74
68 67 68 68 68 69 68 67 67 67 71 72 73 73 73 73 73 72 73 70 68 66 66 68 70 67 69 71 76 77 77 78 79 79 78 76 75 73 73 76 76 75 75 74 74 73 74 72 73 75 74 74 71 71 70 69 65 63 63 60 66 63 65 68 68 67 66 65 65 65 64 64 65 64 65 68 68 71 73 75 76 75 75 75 74
67 67 69 71 70 70 69 70 69 69 70 73 75 74 73 74 72 72 71 71 70 67 66 67 67 69 68 72 76 76 76 77 78 78 78 76 74 74 75 76 75 75 75 75 74 74 74 74 74 76 77 75 74 74 73 72 68 64 61 62 64 69 67 67 69 65 65 63 63 64 61 66 63 65 67 67 66 70 70 72 74 74 75 75 75
67 69 70 71 71 71 71 71 72 69 72 73 74 71 71 71 68 68 69 68 68 68 70 68 68 67 69 72 76 76 76 77 78 78 78 77 75 74 75 75 75 75 75 74 73 74 76 77 76 75 76 75 74 74 73 72 67 67 65 64 65 67 68 67 67 66 66 66 66 65 62 63 65 65 64 66 66 65 69 72 72 70 72 75 75
68 69 70 70 71 71 72 72 72 72 73 72 72 69 68 68 66 64 64 65 68 68 67 68 67 66 71 72 75 73 75 76 76 76 77 77 77 76 76 76 75 75 76 75 74 75 77 76 76 76 74 74 74 73 72 70 68 66 67 63 65 66 65 66 66 63 63 62 63 65 63 64 65 66 67 65 66 65 68 71 70 70 70 72 75
68 69 70 70 71 70 71 72 72 73 73 72 71 68 68 67 65 65 61 61 65 66 66 67 65 66 72 75 75 73 74 75 75 76 76 76 76 75 76 76 75 76 76 77 77 76 77 76 75 74 73 73 74 72 71 70 68 62 61 61 60 62 65 62 62 60 61 62 62 64 65 61 61 63 65 68 68 66 67 69 70 70 72 72 71
67 68 70 71 72 71 71 72 72 72 72 73 72 70 69 69 65 63 62 60 63 65 63 65 66 65 69 74 74 74 75 75 75 75 75 75 75 75 76 76 76 76 76 77 76 77 77 76 76 73 72 74 72 73 72 71 65 62 64 62 59 59 62 61 60 60 59 60 61 60 61 60 61 64 67 67 66 67 65 66 69 71 72 72 70
68 69 69 70 70 71 71 73 73 73 73 73 73 72 71 72 70 67 66 64 65 66 67 67 68 67 67 71 74 75 75 74 73 74 74 74 75 75 74 75 76 76 76 77 77 77 77 76 73 74 73 70 71 71 72 73 70 64 61 60 60 57 58 61 61 60 59 58 58 58 59 60 62 65 67 66 63 66 67 68 71 71 72 72 72
68 68 68 69 69 70 72 73 73 73 74 74 74 74 73 73 72 71 70 69 70 68 67 66 68 68 67 70 72 74 75 74 73 74 74 74 75 75 74 74 75 76 76 75 76 74 74 75 76 76 75 70 71 71 71 70 70 67 63 62 59 56 57 57 52 59 57 56 57 58 59 60 61 64 65 64 66 67 65 66 70 71 72 72 72
67 68 68 68 69 70 72 73 73 72 73 74 75 74 73 72 71 70 68 67 66 66 64 62 60 61 61 66 71 72 73 74 74 74 74 74 75 75 75 74 74 74 75 73 74 75 76 74 74 75 74 75 74 69 68 72 70 70 69 64 65 61 60 60 55 58 63 57 58 57 59 60 61 63 67 66 65 66 67 66 71 71 71 72 71
67 68 68 69 70 71 73 73 74 74 74 75 75 75 74 73 72 69 66 66 65 63 65 61 59 60 62 66 69 71 74 73 73 74 74 75 75 76 76 75 74 74 75 74 73 72 71 74 74 74 74 75 74 72 70 68 73 71 67 62 63 63 60 60 59 59 59 60 58 56 57 59 59 59 61 63 62 64 66 67 66 66 70 71 70
67 67 67 68 71 72 73 74 74 74 74 74 75 74 74 73 73 70 67 66 62 64 67 66 64 65 64 66 68 70 74 74 72 74 75 75 75 75 76 75 74 73 73 73 72 71 73 75 76 77 76 77 77 73 71 68 71 71 67 66 64 64 65 62 61 60 60 60 59 57 56 56 57 58 59 59 59 61 64 67 67 67 67 69 70
66 67 68 70 71 72 74 74 74 74 74 75 75 75 74 73 73 71 69 67 66 64 67 68 66 68 69 69 72 70 72 75 74 73 75 75 75 75 76 76 74 74 74 71 70 70 73 75 77 77 77 77 76 75 75 74 71 69 69 69 67 65 64 62 63 64 61 60 58 58 59 58 58 58 60 59 58 60 62 65 67 66 68 69 71
66 68 69 69 70 72 73 74 74 74 74 75 75 75 74 74 73 72 71 69 68 67 67 69 70 71 71 72 72 73 70 73 74 75 76 75 75 75 74 74 74 72 72 71 71 71 72 74 75 76 76 76 76 75 75 74 73 72 71 71 70 68 65 64 60 61 60 63 60 58 58 56 58 60 61 59 62 60 60 63 66 64 66 68 69
67 68 69 69 70 71 73 74 75 74 74 74 75 75 74 73 73 73 72 71 71 69 69 71 71 73 72 70 71 72 71 71 70 73 74 74 75 75 72 73 74 74 74 74 73 71 69 70 72 74 77 78 76 76 75 75 75 75 73 73 71 68 67 65 64 63 62 62 60 58 56 57 57 58 62 61 63 60 63 64 62 61 68 68 69